Showing default

COSMOS 203, 3129

Orbit data source: Space-Track

COSMOS 203, 3129 is a payload satellite owned by OKB-10 (CIS) in LEO that was launched on Tue, 20 Feb 1968 UTC via a KOSMOS 11K65M launch vehicle from the Plesetsk Missile And Space Complex (PKMTR). Payload-class satellites include a variety of spacecraft equipped with specific instruments for various scientific and technological missions. These include communications satellites like Starlink; space stations such as the ISS; scientific satellites like the Hubble; Earth observation satellites from companies like Planet Labs, Umbra, and HawkEye 360; GPS; miniature CubeSats for education and research; and military/defense satellites.

Loading next visibility...
Identifier
3129, 1968-011A
Orbit
LEO
Country
Flag of CISCIS
Related business
Manufacturer
OKB-10
Mission
Spacecraft
Bus & Motor
KAUR-1 11F621, Unknown motor
Mass
800 kg wet, 800 kg dry
Launch date (UTC)
1968-02-20 (58 years ago)
Launch vehicle
KOSMOS 11K65M
Launch site
Plesetsk Missile And Space Complex (PKMTR)
Object type
Payload
Rocket body
Debris
Shape & HBR
Unknown
Radar Cross Section
Large (>1 m²)

Expand to show TLE details & history
Last TLE update: 8 hours ago

TLE from 8 hours ago
0 COSMOS 203
1  3129U 68011A   26151.21433980  .00000041  00000-0  15389-3 0  9990
2  3129  74.0502 119.2112 0012793 316.1154 142.4262 13.18304133803745
Epoch: 2026-05-31T05:08Z
TLE epoch observation values (Epoch: 2026-05-31T05:08:38.958Z)
Latitude
71.99895°
Longitude
-87.72635°
Altitude
1,210.946 km
Speed
7.252 km/s
True Right ascension
15h 52m 37s
True Declination
71° 54' 13"
Sunlit
Object was in daylight at epoch
Visualization orbit readout
Latitude
Unknown
Longitude
Unknown
Altitude
Unknown
Speed
Unknown
Apparent Right ascension
Unknown
Apparent Declination
Unknown
Sunlit
N/A
Visualization observer readout
Local Sidereal Time
22:27:26
Azimuth
Unknown
Elevation
Unknown
Doppler factor
Unknown
Orbital elements
Apogee altitude
1,198.64 km
Perigee altitude
1,179.279 km
Semi-major axis
7,567.096 km
Eccentricity
0.00128
Inclination
74.0502°
RAAN
119.2112°
Arg. of periapsis
316.1154°
True anomaly
142.51548°
Mean anomaly
142.4262°
Eccentric anomaly
142.47085°
Mean motion
3.29723 °/min
Orbital period
109.18 mins
BSTAR
0.00015389
Loading maneuver chart data...
Computing Atmospheric mass density...
Loading historical data...
Loading historical data...
Loading historical data...
Loading historical data...
Loading historical data...
Loading historical data...
Loading historical data...
Other satellites on launch #11 in the year 1968 (1968-02-20 UTC)

Documentation

Showing up to 5 results
|